Location: Bagong Pook
(14.2541°N, 120.8791°E)
Time: 02:50:33
(UTC+00:00)

Cosmos 676 Rocket - Pass Details

Date: 13 January 2026
Orbit: 750 x 779 km, 74.0° (Epoch: 16 February)

Event Time Altitude Azimuth Distance (km) Brightness Sun altitude
Rises 10:04:57 0° 358° (N) 3,207 7.0 -5.1°
Reaches altitude 10° 10:07:26 10° 5° (N) 2,286 6.2 -5.7°
Maximum altitude 10:12:19 42° 76° (ENE) 1,084 4.4 -6.8°
Drops below altitude 10° 10:17:14 10° 146° (SE) 2,303 6.3 -7.9°
Sets 10:19:44 0° 153° (SSE) 3,233 7.2 -8.5°
